Location: Borea
(45.6167°N, 23.0167°E)
Time: 02:09:09
(UTC+00:00)

OPS 8068 - Pass Details

Date: 27 February 2024
Orbit: 631 x 963 km, 98.3° (Epoch: 13 April)

Event Time Altitude Azimuth Distance (km) Brightness Sun altitude
Rises 18:04:00 0° 356° (N) 3,340 ? -20.5°
Reaches altitude 10° 18:07:33 10° 331° (NNW) 2,476 ? -21.1°
Maximum altitude 18:10:05 13° 304° (WNW) 2,281 ? -21.5°
Drops below altitude 10° 18:12:41 10° 276° (W) 2,564 ? -22.0°
Sets 18:16:30 0° 252° (WSW) 3,559 ? -22.6°
